Time,TemperatureF,DewpointF,PressureIn,WindDirection,WindDirectionDegrees,WindSpeedMPH,WindSpeedGustMPH,Humidity,HourlyPrecipIn,Conditions,Clouds,dailyrainin,SoftwareType,DateUTC
2013-09-05 00:22:00,79.0,59.0,29.31,NNE,23,1.0,-999.0,50,0.00,,,0.01,,2013-09-05 07:22:00,
2013-09-05 00:32:00,79.0,59.0,29.31,NNE,23,1.0,-999.0,50,0.00,,,0.01,,2013-09-05 07:32:00,
2013-09-05 00:42:00,79.0,59.0,29.31,NNE,23,1.0,-999.0,50,0.00,,,0.01,,2013-09-05 07:42:00,
2013-09-05 01:12:00,77.0,60.0,29.31,West,274,2.0,-999.0,56,0.00,,,0.01,,2013-09-05 08:12:00,
2013-09-05 01:21:00,77.0,60.0,29.31,West,274,2.0,-999.0,56,0.00,,,0.01,,2013-09-05 08:21:00,
2013-09-05 01:32:00,77.0,60.0,29.31,West,274,2.0,-999.0,56,0.00,,,0.01,,2013-09-05 08:32:00,
2013-09-05 01:42:00,77.0,60.0,29.31,West,274,2.0,-999.0,56,0.00,,,0.01,,2013-09-05 08:42:00,
2013-09-05 02:11:00,77.0,60.0,29.29,WNW,282,2.0,-999.0,56,-99.99,,,0.00,,2013-09-05 09:11:00,
2013-09-05 02:22:00,77.0,60.0,29.29,WNW,282,2.0,-999.0,56,-99.99,,,0.00,,2013-09-05 09:22:00,
2013-09-05 02:33:00,77.0,60.0,29.29,WNW,282,2.0,-999.0,56,-99.99,,,0.00,,2013-09-05 09:33:00,
2013-09-05 02:43:00,77.0,60.0,29.29,WNW,282,2.0,-999.0,56,-99.99,,,0.00,,2013-09-05 09:43:00,
2013-09-05 03:12:00,78.0,60.0,29.29,South,183,6.0,-999.0,54,0.00,,,0.00,,2013-09-05 10:12:00,
2013-09-05 03:23:00,78.0,60.0,29.29,South,183,6.0,-999.0,54,0.00,,,0.00,,2013-09-05 10:23:00,
2013-09-05 03:32:00,78.0,60.0,29.29,South,183,6.0,-999.0,54,0.00,,,0.00,,2013-09-05 10:32:00,
2013-09-05 03:42:00,78.0,60.0,29.29,South,183,6.0,-999.0,54,0.00,,,0.00,,2013-09-05 10:42:00,
2013-09-05 04:12:00,72.0,59.0,29.29,SSE,156,1.0,-999.0,63,0.00,,,0.00,,2013-09-05 11:12:00,
2013-09-05 04:21:00,72.0,59.0,29.29,SSE,156,1.0,-999.0,63,0.00,,,0.00,,2013-09-05 11:21:00,
2013-09-05 04:33:00,72.0,59.0,29.29,SSE,156,1.0,-999.0,63,0.00,,,0.00,,2013-09-05 11:33:00,
2013-09-05 04:42:00,72.0,59.0,29.29,SSE,156,1.0,-999.0,63,0.00,,,0.00,,2013-09-05 11:42:00,
2013-09-05 05:21:00,70.0,59.0,29.30,NNE,25,1.0,-999.0,68,0.00,,,0.00,,2013-09-05 12:21:00,
2013-09-05 05:32:00,70.0,59.0,29.30,NNE,25,1.0,-999.0,68,0.00,,,0.00,,2013-09-05 12:32:00,
2013-09-05 05:42:00,70.0,59.0,29.30,NNE,25,1.0,-999.0,68,0.00,,,0.00,,2013-09-05 12:42:00,
2013-09-05 06:12:00,69.0,59.0,29.30,West,270,1.0,-999.0,70,0.00,,,0.00,,2013-09-05 13:12:00,
2013-09-05 06:21:00,69.0,59.0,29.30,West,270,1.0,-999.0,70,0.00,,,0.00,,2013-09-05 13:21:00,
2013-09-05 06:32:00,69.0,59.0,29.30,West,270,1.0,-999.0,70,0.00,,,0.00,,2013-09-05 13:32:00,
2013-09-05 06:42:00,69.0,59.0,29.30,West,270,1.0,-999.0,70,0.00,,,0.00,,2013-09-05 13:42:00,
2013-09-05 07:12:00,68.0,59.0,29.32,East,86,0.0,-999.0,72,-99.99,,,0.00,,2013-09-05 14:12:00,
2013-09-05 07:22:00,68.0,59.0,29.32,East,86,0.0,-999.0,72,-99.99,,,0.00,,2013-09-05 14:22:00,
2013-09-05 07:32:00,68.0,59.0,29.32,East,86,0.0,-999.0,72,-99.99,,,0.00,,2013-09-05 14:32:00,
2013-09-05 07:42:00,68.0,59.0,29.32,East,86,0.0,-999.0,72,-99.99,,,0.00,,2013-09-05 14:42:00,
2013-09-05 08:11:00,68.0,54.0,29.34,SSW,212,5.0,-999.0,62,0.00,,,0.00,,2013-09-05 15:11:00,
2013-09-05 08:22:00,68.0,54.0,29.34,SSW,212,5.0,-999.0,62,0.00,,,0.00,,2013-09-05 15:22:00,
2013-09-05 08:33:00,68.0,54.0,29.34,SSW,212,5.0,-999.0,62,0.00,,,0.00,,2013-09-05 15:33:00,
2013-09-05 08:43:00,68.0,54.0,29.34,SSW,212,5.0,-999.0,62,0.00,,,0.00,,2013-09-05 15:43:00,
2013-09-05 09:13:00,75.0,55.0,29.35,West,266,2.0,-999.0,51,0.00,,,0.00,,2013-09-05 16:13:00,
2013-09-05 09:24:00,75.0,55.0,29.35,West,266,2.0,-999.0,51,0.00,,,0.00,,2013-09-05 16:24:00,
2013-09-05 09:32:00,75.0,55.0,29.35,West,266,2.0,-999.0,51,0.00,,,0.00,,2013-09-05 16:32:00,
2013-09-05 09:43:00,75.0,55.0,29.35,West,266,2.0,-999.0,51,0.00,,,0.00,,2013-09-05 16:43:00,
2013-09-05 10:23:00,79.0,57.0,29.35,West,264,3.0,-999.0,46,0.00,,,0.00,,2013-09-05 17:23:00,
2013-09-05 10:34:00,79.0,57.0,29.35,West,264,3.0,-999.0,46,0.00,,,0.00,,2013-09-05 17:34:00,
2013-09-05 10:43:00,79.0,57.0,29.35,West,264,3.0,-999.0,46,0.00,,,0.00,,2013-09-05 17:43:00,
2013-09-05 12:11:00,87.0,57.0,29.34,WSW,250,5.0,-999.0,36,-99.99,,,0.00,,2013-09-05 19:11:00,
2013-09-05 12:21:00,87.0,57.0,29.34,WSW,250,5.0,-999.0,36,-99.99,,,0.00,,2013-09-05 19:21:00,
2013-09-05 12:32:00,87.0,57.0,29.34,WSW,250,5.0,-999.0,36,-99.99,,,0.00,,2013-09-05 19:32:00,
2013-09-05 12:42:00,87.0,57.0,29.34,WSW,250,5.0,-999.0,36,-99.99,,,0.00,,2013-09-05 19:42:00,
2013-09-05 13:11:00,88.0,56.0,29.34,South,172,3.0,-999.0,33,0.01,,,0.01,,2013-09-05 20:11:00,
2013-09-05 13:22:00,88.0,56.0,29.34,South,172,3.0,-999.0,33,0.01,,,0.01,,2013-09-05 20:22:00,
2013-09-05 13:32:00,88.0,56.0,29.34,South,172,3.0,-999.0,33,0.01,,,0.01,,2013-09-05 20:32:00,
2013-09-05 13:42:00,88.0,56.0,29.34,South,172,3.0,-999.0,33,0.01,,,0.01,,2013-09-05 20:42:00,
2013-09-05 14:21:00,90.0,56.0,29.32,WNW,283,6.0,-999.0,32,0.00,,,0.00,,2013-09-05 21:21:00,
2013-09-05 14:34:00,90.0,56.0,29.32,WNW,283,6.0,-999.0,32,0.00,,,0.00,,2013-09-05 21:34:00,
2013-09-05 14:44:00,90.0,56.0,29.32,WNW,283,6.0,-999.0,32,0.00,,,0.00,,2013-09-05 21:44:00,
2013-09-05 15:13:00,93.0,55.0,29.29,SSW,200,4.0,-999.0,28,0.00,,,0.00,,2013-09-05 22:13:00,
2013-09-05 15:24:00,93.0,55.0,29.29,SSW,200,4.0,-999.0,28,0.00,,,0.00,,2013-09-05 22:24:00,
2013-09-05 15:33:00,93.0,55.0,29.29,SSW,200,4.0,-999.0,28,0.00,,,0.00,,2013-09-05 22:33:00,
2013-09-05 15:43:00,93.0,55.0,29.29,SSW,200,4.0,-999.0,28,0.00,,,0.00,,2013-09-05 22:43:00,
2013-09-05 16:12:00,94.0,57.0,29.27,SW,230,5.0,-999.0,29,0.00,,,0.00,,2013-09-05 23:12:00,
2013-09-05 16:22:00,94.0,57.0,29.27,SW,230,5.0,-999.0,29,0.00,,,0.00,,2013-09-05 23:22:00,
2013-09-05 16:34:00,94.0,57.0,29.27,SW,230,5.0,-999.0,29,0.00,,,0.00,,2013-09-05 23:34:00,
2013-09-05 16:42:00,94.0,57.0,29.27,SW,230,5.0,-999.0,29,0.00,,,0.00,,2013-09-05 23:42:00,
2013-09-05 17:12:00,95.0,57.0,29.25,WSW,258,2.0,-999.0,29,0.00,,,0.00,,2013-09-06 00:12:00,
2013-09-05 17:22:00,95.0,57.0,29.25,WSW,258,2.0,-999.0,29,0.00,,,0.00,,2013-09-06 00:22:00,
2013-09-05 17:32:00,95.0,57.0,29.25,WSW,258,2.0,-999.0,29,0.00,,,0.00,,2013-09-06 00:32:00,
2013-09-05 17:42:00,95.0,57.0,29.25,WSW,258,2.0,-999.0,29,0.00,,,0.00,,2013-09-06 00:42:00,
2013-09-05 18:22:00,93.0,55.0,29.24,SW,233,7.0,-999.0,28,0.00,,,0.00,,2013-09-06 01:22:00,
2013-09-05 18:32:00,93.0,55.0,29.24,SW,233,7.0,-999.0,28,0.00,,,0.00,,2013-09-06 01:32:00,
2013-09-05 18:42:00,93.0,55.0,29.24,SW,233,7.0,-999.0,28,0.00,,,0.00,,2013-09-06 01:42:00,
2013-09-05 19:22:00,90.0,56.0,29.25,SSW,207,6.0,-999.0,31,0.00,,,-99.99,,2013-09-06 02:22:00,
2013-09-05 19:32:00,90.0,56.0,29.25,SSW,207,6.0,-999.0,31,0.00,,,-99.99,,2013-09-06 02:32:00,
2013-09-05 19:42:00,90.0,56.0,29.25,SSW,207,6.0,-999.0,31,0.00,,,-99.99,,2013-09-06 02:42:00,
2013-09-05 20:11:00,86.0,56.0,29.26,South,185,5.0,-999.0,35,0.00,,,0.00,,2013-09-06 03:11:00,
2013-09-05 20:22:00,86.0,56.0,29.26,South,185,5.0,-999.0,35,0.00,,,0.00,,2013-09-06 03:22:00,
2013-09-05 20:34:00,86.0,56.0,29.26,South,185,5.0,-999.0,35,0.00,,,0.00,,2013-09-06 03:34:00,
2013-09-05 20:44:00,86.0,56.0,29.26,South,185,5.0,-999.0,35,0.00,,,0.00,,2013-09-06 03:44:00,
2013-09-05 21:14:00,84.0,56.0,29.28,NNW,339,1.0,-999.0,39,0.00,,,0.00,,2013-09-06 04:14:00,
2013-09-05 21:23:00,84.0,56.0,29.28,NNW,339,1.0,-999.0,39,0.00,,,0.00,,2013-09-06 04:23:00,
2013-09-05 21:34:00,84.0,56.0,29.28,NNW,339,1.0,-999.0,39,0.00,,,0.00,,2013-09-06 04:34:00,
2013-09-05 21:44:00,84.0,56.0,29.28,NNW,339,1.0,-999.0,39,0.00,,,0.00,,2013-09-06 04:44:00,
2013-09-05 22:12:00,83.0,56.0,29.30,NE,52,5.0,-999.0,39,0.00,,,0.00,,2013-09-06 05:12:00,
2013-09-05 22:23:00,83.0,56.0,29.30,NE,52,5.0,-999.0,39,0.00,,,0.00,,2013-09-06 05:23:00,
2013-09-05 22:34:00,83.0,56.0,29.30,NE,52,5.0,-999.0,39,0.00,,,0.00,,2013-09-06 05:34:00,
2013-09-05 22:42:00,83.0,56.0,29.30,NE,52,5.0,-999.0,39,0.00,,,0.00,,2013-09-06 05:42:00,
2013-09-05 23:11:00,81.0,60.0,29.31,WNW,286,1.0,-999.0,49,0.00,,,0.00,,2013-09-06 06:11:00,
2013-09-05 23:21:00,81.0,60.0,29.31,WNW,286,1.0,-999.0,49,0.00,,,0.00,,2013-09-06 06:21:00,
2013-09-05 23:32:00,81.0,60.0,29.31,WNW,286,1.0,-999.0,49,0.00,,,0.00,,2013-09-06 06:32:00,
2013-09-05 23:42:00,81.0,60.0,29.31,WNW,286,1.0,-999.0,49,0.00,,,0.00,,2013-09-06 06:42:00,